Back to catalog

DELTA 1 DEB

AlivePO
NORAD 21324·DEBRIS·🇺🇸 United States

Launched Jun 12, 1975 from Vandenberg Space Force Base

Loading…

Next Passes (next 24 hours)

TLE

FreshSource: Space-Track

Epoch: Sep 14, 2026, 10:24 UTC

1 21324U 75052AS  26257.43366811  .00000714  00000-0  16686-2 0  9996
2 21324  99.5697 240.6264 0313648  42.0075 108.0915 13.11053803677713

Track DELTA 1 DEB in real time with AllMySat

Download on the App Store